Glens Falls, NY

3:28 AM EST on December 11, 2019 (GMT -0500)
Bennett Memorial

Weather History for KGFL - October, 2019

Change the Weather History Date:

Thursday, October 31, 2019

  Actual Average Record
Temperature  
Mean Temperature 64 °F 42 °F  
Max Temperature 72 °F 53 °F 75 °F (1942)
Min Temperature 55 °F 31 °F 16 °F (2002)
Degree Days  
Heating Degree Days 1 23  
Month to date heating degree days 469 570  
Since 1 July heating degree days 691 855  
Cooling Degree Days 0 0  
Month to date cooling degree days 0 1  
Year to date cooling degree days 416 352  
Growing Degree Days 13 (Base 50)    
Moisture  
Dew Point 59 °F    
Average Humidity 90    
Maximum Humidity 100    
Minimum Humidity 79    
Precipitation  
Precipitation 1.57 in 0.11 in 1.57 in (2019)
Month to date precipitation 7.85 3.51  
Year to date precipitation 38.70 32.70  
Sea Level Pressure  
Sea Level Pressure 29.74 in    
Wind  
Wind Speed 9 mph (SSW)    
Max Wind Speed 26 mph    
Max Gust Speed 36 mph    
Visibility 5 miles    
Events Rain    
T = Trace of Precipitation, MM = Missing Value Source: NWS Daily Summary

Daily Weather History Graph

Daily Weather History Graph

Search for Another Location

Airport or City:

Astronomy

Oct. 31, 2019 Rise Set
Actual Time 7:27 AM EDT 5:47 PM EDT
Civil Twilight 6:58 AM EDT 6:17 PM EDT
Nautical Twilight 6:24 AM EDT 6:50 PM EDT
Astronomical Twilight 5:51 AM EDT 7:23 PM EDT
Moon 11:18 AM EDT (10/31) 8:36 PM EDT (10/31)
Length of Visible Light 11h 18m
Length of Day
10h 19m
Waxing Crescent, 15% of the Moon is Illuminated
Oct 31
Waxing Crescent
Nov 4
First Quarter
Nov 12
Full
Nov 19
Last Quarter
Nov 26
New

Hourly Weather History & Observations

Time (EDT) Temp. Dew Point Humidity Pressure Visibility Wind Dir Wind Speed Gust Speed Precip Events Conditions
12:53 AM 55.0 °F 53.1 °F 93% 30.03 in 10.0 mi Calm Calm - N/A   Overcast
1:53 AM 55.0 °F 53.1 °F 93% 30.01 in 8.0 mi Calm Calm - 0.00 in Rain Light Rain
2:53 AM 55.0 °F 54.0 °F 96% 29.98 in 6.0 mi Calm Calm - 0.02 in Rain Light Rain
3:11 AM 55.0 °F 54.0 °F 96% 29.97 in 5.0 mi Calm Calm - 0.01 in Rain Light Rain
3:41 AM 55.0 °F 54.0 °F 96% 29.94 in 2.0 mi Calm Calm - 0.05 in Rain Rain
3:53 AM 55.0 °F 54.0 °F 96% 29.94 in 2.0 mi Calm Calm - 0.08 in Rain Rain
4:00 AM 55.0 °F 54.0 °F 96% 29.93 in 1.8 mi Calm Calm - 0.03 in Rain Rain
4:27 AM 55.0 °F 54.0 °F 96% 29.93 in 1.5 mi Calm Calm - 0.17 in Rain Rain
4:46 AM 55.0 °F 54.0 °F 96% 29.92 in 2.0 mi Calm Calm - 0.23 in Rain Light Rain
4:53 AM 55.0 °F 54.0 °F 96% 29.92 in 1.8 mi Calm Calm - 0.24 in Rain Light Rain
5:11 AM 55.0 °F 54.0 °F 96% 29.91 in 2.0 mi Calm Calm - 0.05 in Rain Rain
5:46 AM 55.0 °F 54.0 °F 96% 29.90 in 2.5 mi Calm Calm - 0.08 in Rain Light Rain
5:53 AM 55.0 °F 54.0 °F 96% 29.90 in 2.0 mi Calm Calm - 0.09 in Rain Light Rain
6:30 AM 55.0 °F 54.0 °F 96% 29.88 in 2.5 mi Calm Calm - 0.03 in Rain Light Rain
6:38 AM 55.0 °F 54.0 °F 96% 29.87 in 4.0 mi East 3.5 mph - 0.04 in Rain Light Rain
6:53 AM 55.0 °F 54.0 °F 96% 29.88 in 4.0 mi Calm Calm - 0.04 in Rain Light Rain
7:25 AM 55.0 °F 54.0 °F 96% 29.86 in 3.0 mi North 3.5 mph - 0.00 in Rain Light Rain
7:53 AM 55.9 °F 55.0 °F 97% 29.86 in 4.0 mi Calm Calm - 0.01 in Rain Light Rain
8:14 AM 55.9 °F 55.0 °F 97% 29.85 in 3.0 mi Calm Calm - 0.01 in Rain Light Rain
8:53 AM 60.1 °F 57.9 °F 93% 29.86 in 10.0 mi South 10.4 mph - 0.01 in   Overcast
9:13 AM 60.1 °F 57.9 °F 93% 29.85 in 7.0 mi South 10.4 mph - N/A   Overcast
9:53 AM 61.0 °F 59.0 °F 93% 29.85 in 10.0 mi SSW 5.8 mph - 0.00 in   Overcast
10:11 AM 61.0 °F 59.0 °F 93% 29.84 in 10.0 mi SSW 6.9 mph - N/A   Overcast
10:53 AM 61.0 °F 57.9 °F 90% 29.83 in 10.0 mi SSW 9.2 mph - 0.00 in Rain Light Rain
11:53 AM 61.0 °F 59.0 °F 93% 29.79 in 8.0 mi SSW 4.6 mph - 0.01 in Rain Light Rain
12:53 PM 62.1 °F 60.1 °F 93% 29.75 in 4.0 mi SSW 5.8 mph - 0.00 in   Overcast
1:02 PM 62.1 °F 60.1 °F 93% 29.74 in 2.5 mi SSW 5.8 mph - 0.01 in Rain Light Rain
1:10 PM 62.1 °F 61.0 °F 96% 29.73 in 6.0 mi Variable 4.6 mph - 0.01 in Rain Light Rain
1:53 PM 63.0 °F 61.0 °F 93% 29.70 in 10.0 mi SSW 4.6 mph - 0.01 in   Overcast
2:53 PM 64.0 °F 62.1 °F 93% 29.66 in 10.0 mi South 5.8 mph - N/A   Overcast
3:53 PM 66.9 °F 63.0 °F 87% 29.60 in 10.0 mi South 9.2 mph 19.6 mph N/A   Overcast
4:53 PM 68.0 °F 64.9 °F 90% 29.56 in 3.0 mi South 11.5 mph 19.6 mph 0.05 in Rain Light Rain
5:53 PM 69.1 °F 66.0 °F 90% 29.52 in 10.0 mi South 15.0 mph 26.5 mph 0.02 in Rain Light Rain
6:53 PM 71.1 °F 64.9 °F 81% 29.50 in 10.0 mi South 17.3 mph 35.7 mph 0.02 in   Overcast
7:53 PM 70.0 °F 64.9 °F 84% 29.47 in 5.0 mi South 19.6 mph 31.1 mph 0.03 in Rain Light Rain
8:37 PM 69.1 °F 66.0 °F 90% 29.45 in 2.5 mi South 18.4 mph 28.8 mph 0.12 in Rain Heavy Rain
8:46 PM 70.0 °F 66.0 °F 87% 29.45 in 5.0 mi South 16.1 mph 29.9 mph 0.14 in Rain Light Rain
8:53 PM 70.0 °F 66.0 °F 87% 29.44 in 10.0 mi South 13.8 mph 24.2 mph 0.14 in Rain Light Rain
9:53 PM 71.1 °F 64.9 °F 81% 29.41 in 10.0 mi South 18.4 mph 31.1 mph 0.02 in Rain Light Rain
10:53 PM 71.1 °F 64.9 °F 81% 29.35 in 5.0 mi South 18.4 mph 31.1 mph 0.03 in Rain Rain
11:42 PM 69.1 °F 66.0 °F 90% 29.33 in 1.8 mi South 23.0 mph 34.5 mph 0.26 in Rain Heavy Rain
11:49 PM 69.8 °F 66.2 °F 88% 29.33 in 3.0 mi SSW 20.7 mph 32.2 mph 0.29 in Rain Rain
11:53 PM 69.1 °F 66.0 °F 90% 29.33 in 3.0 mi SSW 19.6 mph 31.1 mph 0.31 in Rain Heavy Rain